Regional Weather Roundup
Issued by NWS

Home | Current Version | Previous Version | Text Only | Print | Product List | Glossary Off
Versions: 1 2 3 4 5 6 7 8 9 10 11 12 13 14 15 16 17 18 19 20 21 22 23 24 25 26 27 28 29 30 31 32 33 34 35 36 37 38 39 40 41 42 43 44 45 46 47 48 49 50

000
ASUS43 KDMX 122101
RWRIA

WEATHER ROUNDUP FOR IOWA
NATIONAL WEATHER SERVICE DES MOINES IA
300 PM CST TUE DEC 12 2017

NOTE: "FAIR" INDICATES FEW OR NO CLOUDS BELOW 12,000 FEET WITH NO
SIGNIFICANT WEATHER AND/OR OBSTRUCTIONS TO VISIBILITY.

* - THESE STATIONS ARE NOT NWS STATIONS...THUS NOT UNDER NWS
QUALITY CONTROL.  THEY ALSO DO NOT REPORT WEATHER SUCH
AS PRECIPITATION OR FOG.

IAZ001>003-012>014-020>022-031>034-043>046-122200-
   NORTHWEST IOWA

CITY           SKY/WX    TMP DP  RH WIND       PRES   REMARKS
CARROLL *      MOSUNNY   36  21  55 W15       30.07F WCI  26
CHEROKEE *     SUNNY     37  24  59 SW12      30.03F WCI  30
DENISON *      MOSUNNY   36  21  55 SW10G16   30.09F WCI  28
LE MARS *      SUNNY     39  27  60 SW9       30.03F WCI  33
ORANGE CITY *  SUNNY     37  30  75 SW15      30.02F WCI  28
SHELDON *      MOSUNNY   37  28  70 SW10G16   29.99F WCI  30
SIOUX CITY     SUNNY     43  29  57 SW12      30.04F
SPENCER        SUNNY     38  24  57 W14       30.01F WCI  30
STORM LAKE *   SUNNY     36  23  60 SW16      30.03F WCI  26
$$

IAZ055>058-069>071-079>083-090>094-122200-
   SOUTHWEST IOWA

CITY           SKY/WX    TMP DP  RH WIND       PRES   REMARKS
ATLANTIC *     CLOUDY    36  21  55 SW10      30.11F WCI  28
AUDUBON *      SUNNY     36  21  55 SW10      30.08F WCI  28
CLARINDA *     MOSUNNY   37  21  52 W8          N/A  WCI  31
COUNCIL BLFS * SUNNY     39  27  60 SW8       30.10F WCI  34
CRESTON *      SUNNY     34  19  55 W13       30.12F WCI  25
HARLAN  *      CLOUDY    36  23  60 SW10      30.12F WCI  28
LAMONI         SUNNY     34  15  46 W10       30.13F WCI  26
RED OAK *      CLOUDY    37  23  56 MISG      30.13F
SHENANDOAH *   CLOUDY    39  25  56 W8        30.14F WCI  34
$$

IAZ047>049-059>061-072>074-084-122200-
   CENTRAL IOWA

CITY           SKY/WX    TMP DP  RH WIND       PRES   REMARKS
AMES           PTSUNNY   34  17  50 W12       30.08F WCI  25
ANKENY *       SUNNY     32  14  47 W10G17    30.11F WCI  24
BOONE *        MOSUNNY   34  19  55 W14G21    30.06F WCI  24
CHARITON *     SUNNY     32   7  34 W10G18    30.12F WCI  24
DES MOINES     MOSUNNY   33  12  41 SW13      30.12F WCI  24
GRINNELL*      PTSUNNY   30   5  35 W12G17    30.10F WCI  20
KNOXVILLE *    SUNNY     32   5  32 W12       30.10F WCI  23
MARSHALLTOWN   CLOUDY    29  10  45 W10       30.07F WCI  20
NEWTON *       MOSUNNY   30   9  40 W12       30.10F WCI  21
PELLA *        SUNNY     31   5  33 W7        30.13F WCI  25
$$

IAZ004>006-015-016-023>025-035-036-122200-
   NORTH CENTRAL IOWA

CITY           SKY/WX    TMP DP  RH WIND       PRES   REMARKS
ALGONA *       MOSUNNY   36  23  60 W16       30.01F WCI  26
CLARION *      CLOUDY    34  21  60 W17       30.04F WCI  23
ESTHERVILLE    SUNNY     34  25  69 W15       30.00F WCI  24
FORT DODGE *   MOSUNNY   34  21  59 W12G18    30.05F WCI  25
MASON CITY     CLOUDY    29  17  61 SW12      30.03F WCI  19
FOREST CITY *  CLOUDY    32  23  69 SW10      30.01F WCI  24
WEBSTER CITY * CLOUDY    34  19  55 W15       30.03F WCI  24
IOWA FALLS *   CLOUDY    31  16  53 W10       30.06F WCI  22
$$

IAZ007>011-017>019-026>030-037>042-050>054-066-122200-
   NORTHEAST IOWA

CITY           SKY/WX    TMP DP  RH WIND       PRES   REMARKS
CEDAR RAPIDS   SUNNY     28   4  35 NW13      30.08F WCI  17
CHARLES CITY * CLOUDY    25   9  50 W9        30.05F WCI  15
CLINTON *      SUNNY     27  11  51 NW14      30.09F WCI  16
DECORAH *      CLOUDY    21   5  49 W7        30.03F WCI  13
DUBUQUE        MOSUNNY   21   7  54 NW14      30.07F WCI   8
MONTICELLO *   PTSUNNY   27   3  36 NW13      30.08F WCI  16
OELWEIN *      CLOUDY    25   3  39 W12       30.06F WCI  14
WATERLOO       CLOUDY    26   6  42 W9        30.07F WCI  17
$$

IAZ064-065-067-068-078-122200-
   EAST CENTRAL IOWA

CITY           SKY/WX    TMP DP  RH WIND       PRES   REMARKS
DAVENPORT      SUNNY     27   3  35 NW12      30.12F WCI  17
IOWA CITY      SUNNY     29   2  31 NW10      30.13F WCI  20
MT. PLEASANT * SUNNY     31  -1  26 W9        30.12F WCI  23
MUSCATINE *    SUNNY     30   1  29 W13       30.13F WCI  20
QUAD CITIES    SUNNY     29   2  31 W10       30.10F WCI  20
$$

IAZ062-063-075>077-085>089-095>099-122200-
   SOUTHEAST IOWA

CITY           SKY/WX    TMP DP  RH WIND       PRES   REMARKS
BURLINGTON     SUNNY     30   2  30 W13       30.12F WCI  20
FAIRFIELD *    SUNNY     30  -2  24 W14       30.11F WCI  20
FORT MADISON * SUNNY     30   3  31 W10       30.13F WCI  21
KEOKUK *       SUNNY     32   3  29 W13       30.13F WCI  22
OSKALOOSA *      N/A     31  -2  24 W14       30.12F WCI  21
OTTUMWA        SUNNY     32   0  25 W13       30.11F WCI  22
WASHINGTON *   SUNNY     30   1  29 W12       30.13F WCI  21
$$

ABBREVIATIONS USED IN REMARKS
   TC - TEMPERATURES IN CELSIUS
  WCI - WIND CHILL INDEX
   HX - HEAT INDEX
  VSB - VISIBILITY
$$





USA.gov is the U.S. government's official web portal to all federal, state and local government web resources and services.